Weather in Odate Noshiro

Japan     40°11′30″N   140°22′17″E
temp.,
°C
wind,
m/s
gust,
m/s
humid.,
%
clouds,
%
prec.,
mm/h
press.,
hPa
HPBL,
m
16 may, sun
sun1600:00+13ene2271100 0.0 101335
03:00+13ene2372100 0.0 101248
06:00+16ene237493 0.0 1011108
09:00+18ne0175100 0.0 101042
12:00+19wnw2576100 0.0 1009303
15:00+17w2586100 0.1 1007276
18:00+15wnw1397100 0.7 1007131
21:00+15ne1299100 12.9 100480
17 may, mon
mon1700:00+15ne12100100 19.8 100068
03:00+18ssw51697100 42.8 9981300
06:00+18sw61598100 30.6 9981240
09:00+16sw51198100 32.3 998914
12:00+15sw3799100 1.4 1000735
15:00+14sw3598100 1.5 1002459
18:00+14wsw2599100 0.1 1004439
21:00+13sw2599100 0.1 1006383
18 may, tue
tue1800:00+12wsw2697100 0.0 1008312
03:00+12sw2498100 0.0 1010175
06:00+12wsw129343 0.0 1012244
09:00+18wsw34535 0.0 1013937
12:00+20wsw5444100 0.0 10121209
15:00+18wsw4550100 0.0 1012697
18:00+15sw23777 0.0 101396
21:00+10ne11930 0.0 101511
19 may, wed
wed1900:00+9ne2195100 0.0 101420
03:00+10ene1189100 0.0 101418
06:00+12e1177100 0.0 101478
09:00+19sse015497 0.0 1014442
12:00+21wsw345398 0.0 10131235
15:00+20sw446029 0.0 10131085
18:00+16sw348322 0.0 1015340
21:00+12w11979 0.0 101712
20 may, thu
thu2000:00+11ne0098100 0.0 101710
03:00+10ne1197100 0.0 101712
06:00+13ene1291100 0.0 1018111
09:00+20e235796 0.0 1017557
12:00+24ene1343100 0.0 10151141
15:00+24ssw0355100 0.0 1013679
18:00+18nne2278100 0.0 101318
21:00+16ne2380100 0.0 101361